DW5145 Weather Reports


Display with metric or nautical units.
time (UTC)temp
F
wind
direction
speed
MPH
gust
MPH
rain 1hr
in
rain 24hr
in
rain mn
in
humidity
%
barometer
mb
20181219014622 57 84 6.0 8.0 0.00 0.01 0.00 77 1021.9
20181219013352 57 60 6.0 8.0 0.00 0.01 0.00 78 1021.9
20181219011652 56 311 2.0 4.0 0.00 0.01 0.00 81 1022.0
20181219010133 54 275 1.0 5.0 0.00 0.01 0.00 85 1021.9
20181219004621 53 255 5.0 8.0 0.00 0.01 0.00 88 1022.0
20181219003109 53 252 8.0 11.0 0.00 0.01 0.00 87 1022.1
20181219001627 54 270 8.0 12.0 0.00 0.01 0.00 86 1022.0
20181219000125 55 267 12.0 14.0 0.00 0.01 0.00 84 1022.2
20181218234645 56 284 12.0 16.0 0.00 0.01 0.00 82 1022.3
20181218233244 56 277 12.0 15.0 0.00 0.01 0.00 81 1022.4
20181218231630 57 279 10.0 14.0 0.00 0.01 0.00 80 1022.5
20181218230141 57 269 9.0 13.0 0.00 0.01 0.00 79 1022.5
20181218224618 58 275 8.0 14.0 0.00 0.02 0.00 78 1022.7
20181218223123 59 272 10.0 13.0 0.00 0.02 0.00 78 1022.7
20181218221649 58 294 8.0 12.0 0.00 0.02 0.00 81 1022.8
20181218220053 58 262 10.0 14.0 0.00 0.02 0.00 81 1023.0
20181218214554 58 307 7.0 13.0 0.00 0.02 0.00 84 1023.1
20181218213058 57 280 10.0 14.0 0.00 0.02 0.00 85 1023.2
20181218211620 57 268 10.0 16.0 0.00 0.02 0.00 84 1023.3
20181218210052 57 271 7.0 14.0 0.00 0.02 0.00 85 1023.5
20181218204605 57 285 8.0 13.0 0.00 0.02 0.00 84 1023.6
20181218203130 56 256 6.0 11.0 0.00 0.02 0.00 85 1023.7
20181218201559 57 246 5.0 9.0 0.00 0.02 0.00 87 1023.9
20181218200043 56 256 4.0 8.0 0.00 0.02 0.00 90 1024.1
20181218194548 55 266 5.0 7.0 0.00 0.02 0.00 90 1024.3
20181218193051 55 241 4.0 6.0 0.00 0.02 0.00 91 1024.6
20181218191537 54 240 4.0 6.0 0.00 0.02 0.00 91 1024.8
20181218190034 54 237 3.0 6.0 0.00 0.02 0.00 90 1025.0
20181218184531 54 237 3.0 6.0 0.00 0.02 0.00 90 1025.3
20181218183103 54 229 4.0 5.0 0.00 0.02 0.00 89 1025.4
20181218181543 54 216 4.0 6.0 0.00 0.02 0.00 88 1025.5
20181218180031 53 197 2.0 5.0 0.00 0.02 0.00 87 1025.5
20181218174555 53 167 3.0 4.0 0.00 0.02 0.00 87 1025.6
20181218173031 53 158 2.0 5.0 0.00 0.02 0.00 87 1025.7
20181218171517 54 95 0.0 3.0 0.00 0.02 0.00 88 1025.5
20181218170022 53 95 0.0 3.0 0.00 0.02 0.00 88 1025.4
20181218164516 54 95 1.0 3.0 0.00 0.02 0.00 81 1025.3
20181218163027 54 95 0.0 3.0 0.00 0.02 0.00 73 1025.1
20181218161515 54 95 0.0 3.0 0.00 0.02 0.00 68 1024.9
20181218160021 54 95 2.0 6.0 0.00 0.02 0.00 69 1024.8
20181218154529 53 94 7.0 8.0 0.00 0.02 0.00 71 1024.4
20181218153006 52 104 5.0 8.0 0.00 0.02 0.00 84 1024.1
20181218151504 52 104 2.0 5.0 0.00 0.02 0.00 91 1024.1
20181218150002 51 104 2.0 3.0 0.00 0.02 0.00 92 1024.0
20181218144732 51 104 0.0 3.0 0.00 0.02 0.00 92 1024.1
20181218143206 51 104 1.0 3.0 0.00 0.02 0.00 92 1024.1
20181218141701 52 104 1.0 2.0 0.00 0.02 0.00 91 1024.0
20181218034642 52 286 4.0 9.0 0.00 0.01 0.01 98 1023.6
20181218033141 52 279 5.0 10.0 0.00 0.01 0.01 98 1023.3
20181218031640 52 290 7.0 11.0 0.00 0.01 0.01 98 1023.0
20181218030139 52 300 9.0 15.0 0.00 0.01 0.01 98 1023.3